Regional Weather Roundup
Issued by NWS Grand Forks, ND

Home | Current Version | Previous Version | Graphics & Text | Print | Product List | Glossary On
Versions: 1 2 3 4 5 6 7 8 9 10 11 12 13 14 15 16 17 18 19 20 21 22 23 24 25 26 27 28 29 30 31 32 33 34 35 36 37 38 39 40 41 42 43 44 45 46 47 48 49 50
000
ASUS43 KFGF 200010
RWRFGF
PRAIRIE TO PINES  WEATHER ROUNDUP
NATIONAL WEATHER SERVICE EASTERN NORTH DAKOTA/GRAND FORKS ND
700 PM CDT SUN OCT 19 2014

 **SATELLITE DATA USED TO AUGMENT SKY COVER AT AUTOMATED STATIONS**
 *****  WEATHER ACROSS EASTERN NORTH DAKOTA  *****

CITY           SKY/WX    TMP DP  RH WIND       PRES   REMARKS
GRAND FORKS    CLEAR     51  41  68 CALM      29.86R
6HR MIN TEMP:  51; 6HR MAX TEMP:  67;

GRAND FRKS AFB CLEAR     54  40  57 NW3       29.87R
GRAND FRKS NWS   N/A     52 N/A N/A MISG        N/A
DEVILS LAKE    CLEAR     57  39  51 W7        29.91R
6HR MIN TEMP:  57; 6HR MAX TEMP:  66;

FARGO          CLEAR     58  40  51 N7        29.88R
WAHPETON ARPT  CLEAR     61  34  36 N9        29.88R
$$

 ***** WEATHER ACROSS CENTRAL AND WESTERN NORTH DAKOTA  *****

CITY           SKY/WX    TMP DP  RH WIND       PRES   REMARKS
BISMARCK       CLEAR     64  38  38 NW7       29.98R
6HR MIN TEMP:  64; 6HR MAX TEMP:  73;

MINOT          CLEAR     58  37  45 W8        29.96R
6HR MIN TEMP:  58; 6HR MAX TEMP:  69;

JAMESTOWN      CLEAR     53  38  56 NW8       29.93R
6HR MIN TEMP:  53; 6HR MAX TEMP:  70;

MINOT AFB      CLEAR     53  37  55 W6        29.95R
GARRISON         N/A     55  33  43 NW5       29.98R
WILLISTON      CLEAR     64  38  38 SE3       29.98S
6HR MIN TEMP:  64; 6HR MAX TEMP:  70;

DICKINSON      CLEAR     60  36  40 CALM      30.00R
6HR MIN TEMP:  60; 6HR MAX TEMP:  70;

HETTINGER      CLEAR     59  35  40 N8        30.03R
6HR MIN TEMP:  59; 6HR MAX TEMP:  72;

$$

 *****  OTHER AIRPORT OBSERVATIONS IN OUR AREA  *****

CITY           SKY/WX    TMP DP  RH WIND       PRES   REMARKS
WALHALLA         N/A     59  39  47 NW12      29.87R
GRAFTON AIRPOR FAIR      57  41  54 NW5       29.86R
VALLEY CITY AR FAIR      55  39  54 NW8       29.92R
CANDO          FAIR      57  37  47 NW10      29.92R
CAVALIER APRT  FAIR      59  39  47 NW9       29.86R
GWINNER        CLEAR     61  37  41 N12       29.92R
SHEYENNE NWR     N/A     61  38  43 N6        29.95
ROLLA          FAIR      57  36  44 NW13      29.94R
 ***** THE ABOVE OBSERVATIONS ARE NON NWS ARE NOT QUALITY
       CONTROLLED AND MAY MIS-REPORT RAIN FOR SNOW...
$$

  *****  WEATHER ACROSS NORTHERN MINNESOTA  *****

CITY           SKY/WX    TMP DP  RH WIND       PRES   REMARKS
FLAG ISLAND    CLEAR     54  43  66 NW15      29.80R
WARROAD        CLEAR     54  45  71 NW6       29.83S
ROSEAU         CLEAR     55  45  67 W6        29.83S
HALLOCK        PTCLDY    59  43  55 W3        29.84R
THF RVR FALLS  CLEAR     55  43  62 NW6       29.86S
6HR MIN TEMP:  55; 6HR MAX TEMP:  63;

BAUDETTE       CLOUDY    53  43  68 NW10      29.81R
6HR MIN TEMP:  53; 6HR MAX TEMP:  60;

WASKISH        CLEAR     54  45  71 CALM      29.82R
CROOKSTON      CLEAR     55  43  62 N3        29.87S
STEPHEN NDAWN    N/A     57  43  58 W2          N/A
GREENBUSH NDAW   N/A     52  43  71 W3          N/A
$$
  *****  WEATHER ACROSS CENTRAL AND WEST MINNESOTA  *****

CITY           SKY/WX    TMP DP  RH WIND       PRES   REMARKS
FOSSTON        CLEAR     54  41  62 NW6       29.87R
BEMIDJI        CLEAR     53  41  64 NW9       29.84R
PARK RAPIDS    CLEAR     56  41  57 NW13      29.84R
6HR MIN TEMP:  56; 6HR MAX TEMP:  66;

ELBOW LAKE     FAIR      60  40  47 N12       29.86R
6HR MIN TEMP:  60; 6HR MAX TEMP:  68;

WADENA         CLEAR     55  43  62 NW9       29.85R
DETROIT LAKES  CLEAR     55  43  62 NW10      29.89R
MOORHEAD       CLEAR     59  41  51 N6        29.89R
FERGUS FALLS   CLEAR     59  37  44 N6        29.88R
MORRIS MN      CLEAR     63  39  42 NW9       29.85R
STAPLES        CLEAR     55  41  58 NW9       29.83R
$$
  *****  WEATHER ELSEWHERE ACROSS MINNESOTA  *****

CITY           SKY/WX    TMP DP  RH WIND       PRES   REMARKS
DULUTH         PTCLDY    58  41  53 NW8       29.74R
6HR MIN TEMP:  54; 6HR MAX TEMP:  63;

INTRNTL FALLS  CLEAR     40  38  93 CALM      29.79R
6HR MIN TEMP:  40; 6HR MAX TEMP:  61;

ELY            CLOUDY    55  43  62 NW5       29.74R
CLOQUET        CLEAR     55  41  58 W6        29.75R
WHEATON        CLEAR     61  39  44 NW7       29.89R
BRAINERD       CLEAR     59  40  49 NW10      29.81R
6HR MIN TEMP:  58; 6HR MAX TEMP:  66;

HIBBING        CLEAR     52  40  63 NW6       29.76R
6HR MIN TEMP:  52; 6HR MAX TEMP:  65;

ALEXANDRIA     CLEAR     60  40  47 N8        29.86R
6HR MIN TEMP:  60; 6HR MAX TEMP:  67;

SAINT CLOUD    CLEAR     63  42  46 NW13      29.80R
6HR MIN TEMP:  62; 6HR MAX TEMP:  73;

MINNEAPOLIS    CLEAR     64  44  48 W7        29.78R
6HR MIN TEMP:  59; 6HR MAX TEMP:  69;

$$

  *****  WEATHER ACROSS SOUTH DAKOTA  *****

CITY           SKY/WX    TMP DP  RH WIND       PRES   REMARKS
SIOUX FALLS    CLEAR     61  39  44 NW6       29.90R
6HR MIN TEMP:  61; 6HR MAX TEMP:  74;

BROOKINGS      NOT AVBL
WATERTOWN      CLEAR     61  38  42 N9        29.90R
6HR MIN TEMP:  61; 6HR MAX TEMP:  71;

HURON          CLEAR     61  39  44 NW8       29.91R
6HR MIN TEMP:  61; 6HR MAX TEMP:  78;

SISSETON         N/A     62  39  42 N9        29.88R
ABERDEEN       CLEAR     60  39  45 N8        29.92R
6HR MIN TEMP:  60; 6HR MAX TEMP:  77;

MITCHELL       CLEAR     63  39  41 NW8       29.91R
PIERRE         CLEAR     60  37  42 NW9       29.95R
6HR MIN TEMP:  60; 6HR MAX TEMP:  77;

MOBRIDGE       CLEAR     61  41  47 N7        29.94R
RAPID CITY     CLEAR     63  41  44 CALM      30.05R
6HR MIN TEMP:  63; 6HR MAX TEMP:  74;

$$

  *****  SOME WEATHER IN NEARBY STATES *****

CITY           SKY/WX    TMP DP  RH WIND       PRES   REMARKS
GLASGOW MT     PTCLDY    61  43  51 SE9       29.94F
6HR MIN TEMP:  60; 6HR MAX TEMP:  69;

GREAT FALLS MT CLEAR     67  31  26 SW12      29.90S
6HR MIN TEMP:  66; 6HR MAX TEMP:  74;

CHEYENNE WY    CLEAR     64  33  31 E8        30.15R
6HR MIN TEMP:  64; 6HR MAX TEMP:  69;

SCOTTSBLUFF NE CLEAR     70  40  33 S3        30.06S
6HR MIN TEMP:  67; 6HR MAX TEMP:  76;

OMAHA NE       PTCLDY    68  47  46 S6        29.93S
6HR MIN TEMP:  65; 6HR MAX TEMP:  73;

DES MOINES IA  PTCLDY    62  46  55 SW9       29.94R
6HR MIN TEMP:  62; 6HR MAX TEMP:  67;

DAVENPORT IA   MOCLDY    57  42  57 S13       29.95F
6HR MIN TEMP:  57; 6HR MAX TEMP:  60;

CHICAGO IL     MOCLDY    52  42  69 S9        29.97F
6HR MIN TEMP:  51; 6HR MAX TEMP:  54;

EAU CLAIRE WI  CLEAR     56  45  66 SW3       29.78S
6HR MIN TEMP:  55; 6HR MAX TEMP:  63; 6HR PCP: TRACE;

LA CROSSE WI   PTCLDY    59  45  59 S9        29.82R
6HR MIN TEMP:  59; 6HR MAX TEMP:  64;

$$

  *****  SOME NATIONAL WEATHER *****

CITY           SKY/WX    TMP DP  RH WIND       PRES   REMARKS
LA GUARDIA NY  PTCLDY    48  31  51 NW22G31   30.03R
6HR MIN TEMP:  48; 6HR MAX TEMP:  54;

RALEIGH NC     PTCLDY    50  44  80 CALM      30.11R
6HR MIN TEMP:  50; 6HR MAX TEMP:  65;

ATLANTA GA     MOCLDY    64  48  56 CALM      30.09R
6HR MIN TEMP:  63; 6HR MAX TEMP:  73;

NEW ORLEANS LA PTCLDY    71  55  56 NE5       30.05S
6HR MIN TEMP:  71; 6HR MAX TEMP:  76;

OKLAHOMA CITY  PTCLDY    67  54  63 S8        30.03S
6HR MIN TEMP:  67; 6HR MAX TEMP:  76;

ALBUQUERQUE NM CLOUDY    61  43  51 SE8       30.15S
6HR MIN TEMP:  61; 6HR MAX TEMP:  66;

SALT LAKE CITY CLEAR     69  41  36 W8        30.01F
6HR MIN TEMP:  65; 6HR MAX TEMP:  73;




USA.gov is the U.S. government's official web portal to all federal, state and local government web resources and services.